Tracking 20942 objects as of 15-Jul-2020
HD Live streaming from Space Station
objects crossing your sky now

ARIANE 2 DEB

Track ARIANE 2 DEB now!


NORAD ID: 27039
Int'l Code: 1989-006U
Perigee: 633.8 km
Apogee: 35,664.0 km
Inclination: 8.0 °
Period: 636.8 minutes
Semi major axis: 24519 km
RCS: 0.3487 m2 (medium)
Launch date: January 27, 1989
Source: France (FR)
Launch site: FRENCH GUIANA (FRGUI)

Note: This is SATELLITE DEBRIS
aabbcc
Your satellite tracking list
Your tracking list is empty




NASA's NSSDC Master Catalog

Two Line Element Set (TLE):
1 27039U 89006U   20195.30724316 -.00000027 +00000-0 -37170-3 0  9999
2 27039 007.9751 257.9968 7143223 110.4914 354.2202 02.26113076157155
Source of the keplerian elements: AFSPC